User: anonymous   Login
Location: Unspecified
(0.0000°N, 0.0000°E)
Time: 22:25:56
(UTC+00:00)
Language:

BEESAT 3 - Orbit

View from above orbital plane
View from above orbital plane
View from above satellite
View from above satellite

Ground track
Ground track

The orbit data is extracted from the following two-line orbital elements,

1 39134U 13015E   18167.93669528 +.00000842 +00000-0 +49317-4 0  9993
2 39134 064.8629 127.7195 0012744 213.8868 146.1446 15.19176718284481
Epoch (UTC): 16 June 2018 22:28:50
Eccentricity: 0.0012744
inclination: 64.8629°
perigee height: 499 km
apogee height: 517 km
right ascension of ascending node: 127.7195°
argument of perigee: 213.8868°
revolutions per day: 15.19176718
mean anomaly at epoch: 146.1446°
orbit number at epoch: 28448

The dashed part of the orbit path shows where the satellite is in the earth's shadow,  

DLR